Regional Weather Roundup
Issued by NWS San Angelo, TX

Current Version | Previous Version | Text Only | Print | Product List | Glossary On
Versions: 1 2 3 4 5 6 7 8 9 10 11 12 13 14 15 16 17 18 19 20 21 22 23 24 25 26 27 28 29 30 31 32 33 34 35 36 37 38 39 40 41 42 43 44 45 46 47 48 49 50
000
ASUS44 KSJT 310610
RWRSJT
WEST CENTRAL TEXAS REGIONAL WEATHER ROUNDUP
NATIONAL WEATHER SERVICE SAN ANGELO TX
100 AM CDT MON AUG 31 2015

NOTE: "FAIR" INDICATES FEW OR NO CLOUDS BELOW 12,000 FEET WITH NO
SIGNIFICANT WEATHER AND/OR OBSTRUCTIONS TO VISIBILITY.

TXZ049-054-064>066-071>073-076>078-098-099-113-114-127-128-139-140-
154-155-168>170-310700
...LOCATIONS ACROSS WEST CENTRAL TEXAS...

CITY           SKY/WX    TMP DP  RH WIND       PRES   REMARKS
SAN ANGELO     FAIR      70  62  76 CALM      30.02S
ABILENE        FAIR      76  58  53 S10       30.00S
DYESS AFB      FAIR      76  60  57 S12       29.98S
JUNCTION       FAIR      68  66  93 N3        30.02F
SWEETWATER     FAIR      74  58  58 S9        30.05S
BROWNWOOD      CLOUDY    72  63  73 SE3       30.00S
COLEMAN        FAIR      73  62  68 SW6       30.01S
SONORA         FAIR      68  63  83 CALM      30.08S
OZONA          FAIR      64  59  82 CALM      30.07S
BRADY          CLEAR     70  63  78 S5        30.02S
$$

TEXAS PANHANDLE/OKLAHOMA PANHANDLE

CITY           SKY/WX    TMP DP  RH WIND       PRES   REMARKS
AMARILLO       FAIR      68  53  58 S10       30.05S
BORGER         FAIR      74  54  49 S12       30.00S
CANADIAN       FAIR      66  57  71 W3        29.96S
DALHART        CLEAR     65  51  60 S12       30.05S
DUMAS          FAIR      65  52  63 S8        30.03S
GUYMON         NOT AVBL
HEREFORD       FAIR      65  55  71 S6        30.07S
PAMPA          FAIR      68  55  62 S9        30.02F
PERRYTON       FAIR      65  53  64 S8        29.98S
$$

SOUTHERN PANHANDLE/SOUTH PLAINS/ROLLING PLAINS

CITY           SKY/WX    TMP DP  RH WIND       PRES   REMARKS
LUBBOCK        FAIR      74  54  49 S13       30.05R
SNYDER         FAIR      71  57  61 S6        30.04R
CHILDRESS      FAIR      72  56  57 SE9       29.95S
SEMINOLE       FAIR      68  56  64 S7        30.08R
$$

PERMIAN BASIN

CITY           SKY/WX    TMP DP  RH WIND       PRES   REMARKS
MIDLAND        FAIR      73  57  57 S7        30.05S
ODESSA         FAIR      74  56  53 S12       30.06S
WINK           FAIR      74  59  59 SE9       30.03R
$$

FAR WEST/SOUTHWEST MOUNTAINS/TRANS PECOS

CITY           SKY/WX    TMP DP  RH WIND       PRES   REMARKS
ALPINE         FAIR      70  51  50 S6        30.19R
DRYDEN           N/A     73  61  65 NW6       30.02R
EL PASO        CLEAR     76  51  41 SE7       30.04S
FORT STOCKTON  FAIR      74  57  55 SE14      30.05R
GUADALUPE PASS CLEAR     68  45  43 NE13      30.20S
MARFA          FAIR      63  48  59 N5        30.17R
PECOS          FAIR      75  55  50 SE6       30.02R
$$

DALLAS/FORT WORTH METROPLEX

CITY           SKY/WX    TMP DP  RH WIND       PRES   REMARKS
DFW AIRPORT    FAIR      80  63  55 S10       29.95R
FTW MEACHAM    FAIR      79  63  57 S9        29.95R
DAL-EXECUTIVE  FAIR      79  64  60 S7        29.96R
GRAND PRAIRIE  FAIR      79  65  63 S5        29.97S
ADDISON        FAIR      82  66  57 S6        29.97S
MESQUITE       FAIR      74  65  71 CALM      29.97R
LANCASTER      FAIR      76  64  64 S3        29.97S
$$

NORTH CENTRAL TEXAS

CITY           SKY/WX    TMP DP  RH WIND       PRES   REMARKS
SHRMAN/DENISON FAIR      79  67  66 S8        29.97R
GAINESVILLE    FAIR      76  60  57 SE6       29.98R
BRIDGEPORT     FAIR      78  64  63 SW7       29.97S
DENTON         FAIR      78  63  59 SE8       29.95R
WAXAHACHIE     FAIR      74  65  73 SE3       29.98S
GRANBURY       FAIR      77  64  63 CALM      29.97S
$$

WESTERN NORTH TEXAS

CITY           SKY/WX    TMP DP  RH WIND       PRES   REMARKS
WICHITA FALLS  FAIR      78  60  53 S10       29.93R
VERNON         FAIR      76  53  43 S6        29.94S
BRECKENRIDGE   FAIR      77  61  56 S8        29.97R
COMANCHE       FAIR      74  63  68 S8        29.99F
$$

CENTRAL AND SOUTH CENTRAL TEXAS

CITY           SKY/WX    TMP DP  RH WIND       PRES   REMARKS
AUSTIN/BERGSTM MOCLDY    71  67  87 CALM      29.98S
WACO           FAIR      73  67  81 SE5       29.97S
HILLSBORO      FAIR      74  62  66 SE3       29.98R
TEMPLE         FAIR      73  64  73 SE5       29.98S
KILLEEN-GRAY   FAIR      74  67  76 S6        29.98S
FORT HOOD      FAIR      75  67  76 SE3       29.97R
GEORGETOWN     FAIR      72  70  94 CALM      30.00R
LAGO VISTA     FAIR      75  66  72 E5        30.01S
SAN MARCOS     FAIR      75  66  73 S6        30.00S
NEW BRAUNFELS  FAIR      75  67  76 S6        29.97S
RANDOLPH AFB   FAIR      74  67  80 SE6       29.98S
SAN ANTONIO    MOCLDY    79  68  69 SE8       29.99R
STINSON        FAIR      78  69  73 SE5       29.96S
PLEASANTON     NOT AVBL
LA GRANGE      FAIR      77  71  81 CALM      29.97S
GIDDINGS       FAIR      74  68  81 CALM      30.02S
$$

EAST TEXAS

CITY           SKY/WX    TMP DP  RH WIND       PRES   REMARKS
PARIS          FAIR      75  63  64 S7        29.97S
CLARKSVILLE    NOT AVBL
TYLER          FAIR      75  66  73 S6        29.98S
LONGVIEW       FAIR      75  67  76 S5        29.98R
PALESTINE      NOT AVBL
NACOGDOCHES    FAIR      70  64  83 CALM      29.99F
$$

TEXAS HILL COUNTRY AND EDWARDS PLATEAU

CITY           SKY/WX    TMP DP  RH WIND       PRES   REMARKS
LLANO          FAIR      72  63  73 CALM      30.03S
HORSESHOE BAY  FAIR      71  69  91 CALM      29.99F
KERRVILLE      FAIR      69  66  90 CALM      30.03R
FREDERICKSBRG  FAIR      68  65  90 CALM      30.02S
ROCKSPRINGS    FAIR      68  64  88 CALM      30.06S
HONDO          FAIR      78  68  71 SE9       30.00R
UVALDE         FAIR      73  62  68 E3        29.98S
DEL RIO        FAIR      77  63  61 E9        29.95R
$$

SOUTHEAST TEXAS

CITY           SKY/WX    TMP DP  RH WIND       PRES   REMARKS
COLLEGE STN    FAIR      77  69  76 S8        29.98S
CALDWELL       FAIR      75  72  88 S5        30.01S
CROCKETT       FAIR      73  64  73 SE5       30.02S
BRENHAM        FAIR      77  72  84 S3        29.99S
HUNTSVILLE     FAIR      77  67  71 S5        29.99S
CONROE         FAIR      71  67  87 CALM      30.00S
HOUSTON BUSH   FAIR      75  69  81 S5        29.99S
HOUSTON HOBBY  FAIR      76  69  79 CALM      29.98S
PERLAND        FAIR      75  70  84 CALM      29.99F
WHARTON        FAIR      73  70  92 CALM      29.99S
$$

THE UPPER TEXAS COAST

CITY           SKY/WX    TMP DP  RH WIND       PRES   REMARKS
ORANGE         FAIR     N/A N/A N/A CALM      30.00F FOG
PORT ARTHUR    FAIR      70  69  97 CALM      29.98F
GALVESTON      FAIR      81  70  69 SE9       29.99F
ANGLETON       FAIR      73  70  90 CALM      29.98S
BAY CITY       FAIR      74  73  98 E3        29.98S
$$

TEXAS COASTAL BEND, RIO GRANDE PLAINS DEEP SOUTH TEXAS

CITY           SKY/WX    TMP DP  RH WIND       PRES   REMARKS
VICTORIA       FAIR      76  71  85 MISG      29.98R
BEEVILLE       FAIR      74  73  96 SE3       29.96S
ROCKPORT       FAIR      83  73  72 S9        29.95S
PORT ARANSAS   FAIR      83  75  78 SE10G17   29.95F
PORT LAVACA    FAIR      78  72  84 SE3       29.97S
CORPUS CHRISTI MOCLDY    80  73  79 SE6       29.96R
KINGSVILLE NAS FAIR      78  76  93 SE5       29.96S
COTULLA        FAIR      82  71  69 SE12      29.96R
LAREDO         FAIR      82  72  72 SE10      29.97R
BROWNSVILLE    FAIR      75  73  93 CALM      29.96R
PORT ISABEL    FAIR      78  75  90 S3        29.96R
HEBBRONVILLE   NOT AVBL
MCALLEN        FAIR      79  73  82 SE8       29.96S
WESLACO        FAIR      78  73  86 SE7       29.95F
FALFURRIAS     FAIR      78  73  85 SE6       29.96S
EDINBURG       FAIR      77  72  83 SE3       29.96S
$$



USA.gov is the U.S. government's official web portal to all federal, state and local government web resources and services.